www.pogodaiklimat.ru

Погода и климат >> Архив погоды >> Ирак >> Ханакин


ПОГОДА в Ханакине

  • Прогноз погоды в Ханакине
  • Монитор погоды в Ханакине

АРХИВ ПОГОДЫ в Ханакине

Время (UTC), дата Ветер
(напр.,м/с)
 
Видим.   Явления Облачность Т
(С)
Тd
(С)
f
(%)
Тe
(С)
Тes
(С)
Комфортность P
(гПа)
Po
(гПа)
Тmin
(С)
Tmax
(С)
R
(мм)
R24
(мм)
S
(см)
12 12.02 ЮЗ 2 10 км ясно +17.3 +12.2 72 +18 +22 1018.2 994.3
15 12.02 штиль 0 10 км ясно +14.7 +10.2 74 +14 +14 1018.8 994.7
18 12.02 штиль 0 10 км ясно +10.0 +6.2 77 +9 +9 1021.8 997.2 +18.5
03 13.02 штиль 0 10 км ясно +5.4 +2.1 79 +5 +5 1023.5 998.4
06 13.02 штиль 0 10 км ясно +9.7 +5.6 76 +9 +15 1024.8 1000.1 +4.2
09 13.02 ЮВ 1 10 км ясно +15.3 +10.9 75 +16 +28 опасность
простуды
1024.2 1000.0
12 13.02 ЮЗ 2 10 км 1/0
[]
+18.4 +12.6 69 +19 +23 1022.9 999.0
15 13.02 штиль 0 10 км 3/0
[Ci fib]
+15.5 +11.4 77 +15 +15 1023.3 999.1
18 13.02 штиль 0 10 км ясно +9.2 +5.6 78 +9 +9 1023.0 998.3 +19.5
03 14.02 штиль 0 10 км ясно +6.3 +4.1 86 +5 +5 1023.5 998.5
06 14.02 штиль 0 10 км 4/0
[Ci fib]
+10.6 +6.2 74 +10 +16 1021.4 996.9 +5.5
09 14.02 ЮВ 3 10 км 1/0
[Ci fib]
+15.8 +12.2 79 +15 +24 1021.0 996.9
12 14.02 ЮЗ 2 10 км 6/0
[Ac trans Ci sp]
+16.8 +13.2 79 +17 +20 1015.3 991.4
15 14.02 ЮВ 2 10 км 6/0
[Ac trans Ci sp]
+14.1 +10.9 81 +14 +14 1014.7 990.6
18 14.02 В 1 10 км в посл. час дождь 9/4 750 м
[Cu hum As op]
+14.5 +10.1 75 +15 +15 1015.1 991.0 +19.5 0.0
03 15.02 штиль 0 10 км в посл. час дождь 9/4 750 м
[Cu hum As op]
+12.2 +8.8 80 +12 +12 1015.3 991.0
06 15.02 В 2 8000 м слаб. ливневой дождь 10/10 750 м
[Cu Sc]
+13.5 +10.7 83 +13 +13 1014.5 990.4 +11.0 2
12 15.02 ЮВ 1 10 км в посл. час дождь 9/9 750 м
[Cu Sc]
+13.2 +11.3 88 +13 +14 1011.3 987.2
15 15.02 Ю 2 10 км в посл. час дождь 9/9 750 м
[Cu Sc]
+14.7 +12.5 87 +14 +14 1015.1 991.0
18 15.02 ЮВ 4 10 км {гроза} 10/10 750 м
[Cb cap]
+10.4 +8.9 90 +8 +8 1012.4 988.0 +14.9 16
06 16.02 ЮВ 2 10 км 4/0
[Ci sp]
+9.2 +5.8 79 +8 +12 1020.2 995.6 +4.5
09 16.02 ЮВ 2 10 км 6/0
[Ac trans Ci sp]
+13.1 +8.8 75 +12 +21 1019.9 995.6
12 16.02 З 2 10 км 3/0
[Ci sp]
+13.8 +11.5 86 +13 +17 1020.8 996.5
15 16.02 штиль 0 10 км ясно +12.1 +8.9 81 +12 +12 1021.5 997.1
18 16.02 штиль 0 10 км 3/0
[Ci sp]
+7.8 +4.5 80 +7 +7 1021.4 996.6 +15.5
03 17.02 штиль 0 10 км 3/0
[Ci fib]
+5.7 +1.9 77 +5 +5 1022.0 997.0
06 17.02 ЮВ 1 10 км 6/0
[Ac trans Ci sp]
+11.1 +8.9 86 +11 +15 1020.9 996.4 +5.0
09 17.02 ЮВ 2 10 км 6/0
[Ac trans Ci fib]
+15.3 +12.5 83 +15 +23 1020.2 996.1
12 17.02 Ю 2 10 км 8/8 750 м
[Cb cap]
+15.7 +13.2 85 +16 +17 1019.1 995.0
15 17.02 штиль 0 10 км ясно +11.5 +9.8 89 +11 +11 1019.5 995.1
18 17.02 штиль 0 10 км ясно +10.0 +6.8 80 +9 +9 1019.8 995.2 +17.4
09 18.02 ЮВ 2 10 км 6/0
[Ac trans Ci sp]
+15.7 +10.8 73 +16 +24 1018.4 994.3
06 19.02 ЮВ 1 8000 м слаб. ливневой дождь 9/9 750 м
[Cb cap]
+8.4 +6.8 90 +8 +8 1016.4 991.8 +7.0 2

 

Местоположение метеостанции Ханакин (Ирак): широта 34.30 долгота 45.43 высота над уровнем моря 202 м.

В архиве по умолчанию представлена погода в Ханакине за последнюю неделю. Архивные данные за месяц целиком и за предыдущие месяцы, начиная с января 2011 года, Вы можете получить, выбрав интересующий диапазон дат из раскрывающегося списка и нажав кнопку "Ввод!".


*Определитесь, кто Вы:
робот инопланетянин человек

Внимание! Время в таблицах - всемирное. Для получения местного времени необходимо прибавить поправку, которая равна 3 ч.

Смотрите также архив погоды в соседних городах и на ближайших метеорологических станциях:

Погода в Тузе (Ирак) (96 км)
Погода в Эль-Халисе (Ирак) (98 км)
Погода в Айн Аль-Тамаре (Ирак) (106 км)
Погода в Халабче (Ирак) (111 км)
Погода в Иламе (Иран) (119 км)
Погода в Сулеймании (Ирак) (139 км)
Погода в Бадре (Ирак) (142 км)
Погода в Чамчамале (Ирак) (146 км)
Погода в Керманшахе (Иран) (155 км)
Погода в Эль-Азизии (Ирак) (157 км)

Пояснения к столбцам:

Ветер - указаны скорость ветра в м/с - средняя за 10 мин, порывы в срок и между сроками (в фигурных скобках) и направление, откуда дует ветер: С - северный, СВ - северо-восточный, В - восточный, ЮВ - юго-восточный, Ю - южный, ЮЗ - юго-западный, З - западный, СЗ - северо-западный.
Видимость - горизонтальная дальность видимости в метрах или километрах. При видимости от 1 до 10 км при отсутствии осадков обычно наблюдается дымка, при ухудшении видимости до 1 км и менее - туман. В сухую погоду видимость может ухудшаться дымом, пылью или мглою.
Явления - указаны атмосферные явления, наблюдавшиеся в срок или в последний час перед сроком; фигурными скобками обозначены явления, наблюдавшиеся между сроками (за 1-3 часа до срока); квадратными скобками обозначены град или гололедные отложения с указанием их диаметра в мм.
Облачность - указаны через наклонную черту общая и нижняя облачность в баллах и высота нижней границы облаков в метрах; квадратными скобками обозначены формы облаков: Ci - перистые, Cs - перисто-слоистые, Cc - перисто-кучевые, Ac - высококучевые, As - высокослоистые, Sc - слоисто-кучевые, Ns - слоисто-дождевые, Cu - кучевые, Cb - кучево-дождевые. Подробнее классификацию облаков см. в Атласе облаков (PDF).
T - Температура воздуха - температура, измеренная на высоте 2 м над землей.
Td - Температура точки росы - температура, при понижении до которой содержащийся в воздухе водяной пар достигнет насыщения.
f - Относительная влажность воздуха - влажноcть воздуха, измеренная на высоте 2 м над землей.
Te - Эффективная температура - температура, которую ощущает одетый по сезону человек в тени. Характеристика душности погоды. При расчете учитывается влияние влажности воздуха и скорости ветра на теплоощущения человека.
Tes - Эффективная температура на солнце - температура, которую ощущает человек, с поправкой на солнечный нагрев. Характеристика знойности погоды. Зависит от высоты солнца над горизонтом, облачности и скорости ветра. Ночью, в пасмурную погоду, а также при ветре 12 м/с и более поправка равна нулю.
P - Атмосферное давление - приведенное к уровню моря атмосферное давление.
Po - Атмосферное давление - измеренное на уровне метеостанции атмосферное давление.
Tmin - Минимальная температура - минимум температуры воздуха на высоте 2 м над землей.
Tmax - Максимальная температура - максимум температуры воздуха на высоте 2 м над землей.
R - Количество осадков - Количество выпавших осадков за период времени, мм. При наведении курсора мыши на число - период времени, за который выпало указанное количество осадков.
R24 - Количество осадков - Количество выпавших осадков за 24 часа, мм.
S - Снежный покров - Высота снежного покрова, см. При наведении курсора мыши на число - состояние снежного покрова и степень покрытия местности в баллах.